[[{"header":{"parameterUnit":"m.s-1","parameterCategory":1,"la1":30.2991,"la2":30.254,"lo1":-89.0895,"lo2":-89.0444,"dy":0.0017,"dx":0.0017,"nx":28,"ny":28,"refTime":"2025-04-06T03:00:00:Z","depth":0,"parameterNumber":2,"parameterNumberName":"U-component_of_WINDS"},"data":[0,0,0,0,0,0,0,0,0,0,0,0,0,0,0,0,0,0,0,0,0,0,0,0,0,0,0,0,0,0,0,0,0,0,0,0,0,0,0,0,0,0,0,0,0,0,0,0,0,0,0,0,0,0,0,0,0,0,2.0798,2.0797,0,2.0749,2.0748,2.0748,2.0698,2.0697,2.0696,2.0696,2.0644,2.0643,2.0642,0,0,0,0,0,0,0,0,0,0,0,0,0,2.0847,2.0846,2.0798,2.0797,2.0796,2.0749,2.0748,2.0748,2.0698,2.0697,2.0696,2.0696,2.0644,2.0643,2.0642,0,0,0,0,0,0,0,0,0,0,0,0,0,2.0814,2.0846,2.0798,2.0766,2.0763,2.0749,2.0748,2.0748,2.0698,2.0697,2.0696,2.0695,2.0644,2.0643,2.0642,2.0655,0,0,2.0639,2.0638,0,0,0,0,0,0,0,0,2.0816,2.0813,2.0771,2.0768,2.0764,2.0728,2.0746,2.0717,2.0698,2.0723,2.0696,2.0695,2.0673,2.0669,2.0662,2.0653,2.0651,2.0638,2.0638,2.0637,2.0637,0,0,0,0,0,0,0,2.0819,2.0814,2.0778,2.0771,2.0767,2.0754,2.0748,2.0741,2.0704,2.072,2.0717,2.0712,2.067,2.0663,2.066,2.065,2.0638,2.0637,2.0637,2.0636,2.0651,2.0652,0,0,0,0,0,0,2.0826,2.0817,2.078,2.0777,2.0788,2.0754,2.0747,2.0741,2.0704,2.0697,2.0713,2.071,2.0666,2.0662,2.0658,2.0672,2.0637,2.0636,2.0636,2.065,2.0651,2.0652,0,0,0,0,0,0,2.0827,2.0823,2.0782,2.0796,2.079,2.0754,2.0747,2.0741,2.0733,2.0698,2.0691,2.0712,2.0665,2.066,2.0657,2.067,2.0636,2.0635,2.0648,2.065,2.0651,2.07,0,0,0,0,0,0,2.0829,2.0824,2.0829,2.0796,2.0789,2.0781,2.0748,2.074,2.0732,2.0727,2.0695,2.0689,2.0664,2.0659,2.0656,2.0667,2.0634,2.0647,2.0649,2.0651,2.0697,2.0703,2.0708,0,0,0,0,0,2.0831,2.0843,2.0829,2.0825,2.0794,2.0782,2.0778,2.0749,2.0733,2.0737,2.0715,2.069,2.0669,2.0659,2.0655,2.0667,2.0646,2.0648,2.0651,2.0694,2.0701,2.0708,0,0,0,0,0,0,2.0876,2.0838,2.0822,2.0825,2.0807,2.0774,2.0778,2.0757,2.0743,2.074,2.0704,2.0697,2.0698,2.0682,2.0671,2.0678,2.0654,2.0656,2.0689,2.0695,2.0701,2.0704,2.0633,0,0,0,0,0,2.0887,2.0881,2.0848,2.0853,2.0846,2.0814,2.0807,2.0787,2.0767,2.0759,2.0736,2.0717,2.0707,2.07,2.0688,2.0695,2.0687,2.0701,2.0706,2.0711,2.0713,2.0716,2.0722,2.066,2.066,2.066,0,0,2.0908,2.0887,2.0885,2.0862,2.0846,2.084,2.0808,2.0803,2.0798,2.0758,2.0754,2.0737,2.0714,2.0716,2.0716,2.0703,2.0729,2.0714,2.0718,2.0717,2.0719,2.0725,2.073,2.0662,2.0661,2.0661,0,0,2.0944,2.0928,2.0931,2.0916,2.0893,2.0872,2.0873,2.0843,2.0831,2.0827,2.0797,2.0791,2.0773,2.0758,2.0748,2.0781,2.0758,2.0779,2.0807,2.0811,2.0816,2.082,2.0832,2.0837,2.0781,2.0781,2.0781,0,2.0973,2.0964,2.0935,2.0932,2.0923,2.0888,2.0891,2.0878,2.0852,2.0847,2.0833,2.0811,2.0793,2.0792,2.08,2.0793,2.0793,2.0781,2.0817,2.0821,2.0825,2.0836,2.0841,2.0783,2.0783,2.0783,2.0782,0,2.1001,2.0996,2.1001,2.0978,2.097,2.097,2.0941,2.0936,2.0917,2.0898,2.0895,2.0872,2.0856,2.0854,2.0835,2.0851,2.0843,2.0824,2.0799,2.0834,2.0844,2.0848,2.0787,2.0786,2.0785,2.0785,0,0,2.1062,2.1025,2.1028,2.1018,2.0991,2.0986,2.0985,2.097,2.0967,2.0951,2.0949,2.0936,2.0919,2.0908,2.0887,2.089,2.0919,2.087,2.0869,2.088,2.0936,2.095,2.0956,2.0904,2.0905,2.0905,2.0938,0,2.1094,2.1091,2.1065,2.1069,2.1064,2.1032,2.1032,2.1015,2.0998,2.0991,2.0972,2.0963,2.0941,2.0934,2.0936,2.0915,2.0929,2.0912,2.0902,2.0902,2.0908,2.0961,2.0975,2.1007,2.0942,2.0942,2.0943,0,2.1129,2.1117,2.1121,2.1096,2.1092,2.1092,2.1077,2.1071,2.1052,2.104,2.1029,2.1006,2.1004,2.0981,2.0978,2.0967,2.0962,2.0951,2.0952,2.0949,2.0924,2.0959,2.1016,2.1021,2.0948,2.0948,2.0947,0,2.1173,2.1158,2.1158,2.1151,2.1121,2.1122,2.111,2.109,2.1084,2.1071,2.1066,2.1053,2.1046,2.1036,2.101,2.0996,2.101,2.0985,2.1,2.1,2.1003,2.1003,2.106,2.1001,2.1,2.1,2.1,0,2.121,2.1214,2.1178,2.1179,2.1182,2.1154,2.1158,2.1143,2.1126,2.1123,2.1095,2.1092,2.1059,2.1053,2.1033,2.1034,2.103,2.102,2.1014,2.1022,2.1024,2.1017,2.1014,2.1002,2.1001,2.1001,2.1001,0,2.126,2.1236,2.1235,2.1208,2.1201,2.1205,2.1182,2.1182,2.1164,2.116,2.1158,2.1129,2.1121,2.1095,2.108,2.1067,2.1073,2.1063,2.108,2.1076,2.1092,2.1091,2.1146,2.1152,2.109,2.1091,2.1091,0,2.1284,2.1287,2.1261,2.1258,2.1247,2.1241,2.1235,2.1207,2.1202,2.1182,2.1184,2.1174,2.1164,2.1153,2.113,2.1119,2.1108,2.1129,2.1106,2.1114,2.1109,2.1109,2.1109,2.1133,2.1134,2.1135,2.1135,0,2.1331,2.132,2.1312,2.1301,2.1294,2.1283,2.1271,2.127,2.1239,2.1234,2.1226,2.1219,2.1205,2.1195,2.1181,2.1168,2.1147,2.1143,2.1145,2.1153,2.1163,2.1158,2.1093,2.1141,2.1141,2.114,2.114,2.114,2.1369,2.137,2.1352,2.1345,2.1333,2.1323,2.1322,2.1305,2.1298,2.1284,2.1269,2.1263,2.1246,2.1224,2.1214,2.1209,2.1197,2.1201,2.1201,2.1203,2.1207,2.1164,2.1206,2.1206,2.1205,2.1205,2.1205,0,2.1414,2.1402,2.1395,2.138,2.1374,2.1356,2.1342,2.1339,2.1334,2.1321,2.1312,2.1304,2.1295,2.1273,2.1263,2.1263,2.1253,2.1261,2.126,2.1258,2.1218,2.1216,2.1269,2.1269,2.1269,2.1269,2.1269,2.1269,2.1436,2.1438,2.1425,2.1421,2.1408,2.1403,2.1397,2.1388,2.1377,2.1369,2.1362,2.1348,2.1331,2.132,2.1311,2.1305,2.1302,2.1314,2.1304,2.1267,2.1261,2.1255,2.1253,2.1313,2.1313,2.1345,2.1345,2.1345]},{"header":{"parameterUnit":"m.s-1","parameterCategory":1,"la1":30.2991,"la2":30.254,"lo1":-89.0895,"lo2":-89.0444,"dy":0.0017,"dx":0.0017,"nx":28,"ny":28,"refTime":"2025-04-06T03:00:00:Z","depth":0,"parameterNumber":3,"parameterNumberName":"V-component_of_WINDS"},"data":[0,0,0,0,0,0,0,0,0,0,0,0,0,0,0,0,0,0,0,0,0,0,0,0,0,0,0,0,0,0,0,0,0,0,0,0,0,0,0,0,0,0,0,0,0,0,0,0,0,0,0,0,0,0,0,0,0,0,-6.8998,-6.9,0,-6.919,-6.9192,-6.9194,-6.9158,-6.9155,-6.9152,-6.9148,-6.9339,-6.9347,-6.9355,0,0,0,0,0,0,0,0,0,0,0,0,0,-6.8595,-6.8603,-6.8998,-6.9,-6.9003,-6.919,-6.9192,-6.9195,-6.9159,-6.9155,-6.9151,-6.9147,-6.9336,-6.9346,-6.9356,0,0,0,0,0,0,0,0,0,0,0,0,0,-6.8777,-6.8606,-6.8998,-6.9008,-6.901,-6.9189,-6.9192,-6.9196,-6.916,-6.9155,-6.915,-6.9145,-6.9333,-6.9345,-6.9357,-6.9536,0,0,-6.9395,-6.94,0,0,0,0,0,0,0,0,-6.8767,-6.8792,-6.9004,-6.9007,-6.9011,-6.9145,-6.912,-6.931,-6.9161,-6.9103,-6.9148,-6.9142,-6.9278,-6.9295,-6.9342,-6.9545,-6.9553,-6.9396,-6.9404,-6.9409,-6.9413,0,0,0,0,0,0,0,-6.8754,-6.8783,-6.9074,-6.9007,-6.9011,-6.9001,-6.9021,-6.9156,-6.9217,-6.9108,-6.9106,-6.9129,-6.9279,-6.933,-6.9346,-6.9556,-6.9396,-6.9407,-6.9414,-6.9419,-6.9915,-6.9921,0,0,0,0,0,0,-6.8739,-6.8773,-6.9068,-6.9079,-6.8874,-6.9012,-6.9035,-6.9107,-6.9215,-6.9227,-6.9133,-6.9127,-6.9311,-6.9332,-6.9353,-6.9569,-6.9409,-6.9421,-6.9428,-6.991,-6.9917,-6.9923,0,0,0,0,0,0,-6.8731,-6.8766,-6.906,-6.8926,-6.8963,-6.9025,-6.9106,-6.9114,-6.9164,-6.9235,-6.9245,-6.9175,-6.9308,-6.9335,-6.9491,-6.9575,-6.9426,-6.9437,-6.9903,-6.9912,-6.992,-7.0004,0,0,0,0,0,0,-6.8719,-6.8763,-6.8833,-6.8928,-6.897,-6.9197,-6.9111,-6.9121,-6.9187,-6.918,-6.9276,-6.9287,-6.9306,-6.9473,-6.9504,-6.959,-6.9447,-6.9896,-6.9907,-6.9917,-6.9994,-7.0014,-7.0032,0,0,0,0,0,-6.8705,-6.8848,-6.8837,-6.8872,-6.9059,-6.9202,-6.9226,-6.9247,-6.9194,-6.9264,-6.9309,-6.9284,-6.9561,-6.9489,-6.9523,-6.9614,-6.989,-6.9904,-6.9916,-6.9985,-7.001,-7.0032,0,0,0,0,0,0,-6.8759,-6.886,-6.8849,-6.9027,-6.9107,-6.9196,-6.9285,-6.9273,-6.9368,-6.9357,-6.9377,-6.9399,-6.9558,-6.9601,-6.9519,-6.9793,-6.9718,-6.9738,-6.9759,-6.9783,-6.9802,-6.9788,-6.9457,0,0,0,0,0,-6.8792,-6.8901,-6.8983,-6.9132,-6.9173,-6.9222,-6.9285,-6.9295,-6.9377,-6.941,-6.9466,-6.9546,-6.9651,-6.9719,-6.982,-7.0,-7.002,-7.008,-7.0098,-7.0114,-7.0131,-7.0229,-7.0257,-6.9965,-6.9965,-6.9965,0,0,-6.886,-6.8929,-6.8997,-6.9145,-6.9208,-6.9319,-6.9251,-6.9372,-6.9454,-6.9428,-6.9579,-6.9624,-6.9713,-6.9882,-6.9959,-6.9923,-7.0216,-7.013,-7.0142,-7.0151,-7.0245,-7.0273,-7.0297,-6.9974,-6.9972,-6.9971,0,0,-6.9042,-6.9106,-6.9237,-6.9302,-6.9398,-6.943,-6.9462,-6.9554,-6.9583,-6.9736,-6.9718,-6.9815,-6.9996,-7.0061,-7.0117,-7.0324,-7.0305,-7.0356,-7.0455,-7.0551,-7.0574,-7.0594,-7.0668,-7.0694,-7.0373,-7.0374,-7.0374,0,-6.9114,-6.9284,-6.9305,-6.9429,-6.9494,-6.9478,-6.961,-6.9671,-6.9795,-6.9839,-6.9798,-7.0025,-7.0084,-7.0268,-7.0319,-7.0365,-7.04,-7.0345,-7.0569,-7.059,-7.0609,-7.068,-7.0707,-7.0379,-7.0379,-7.0378,-7.0377,0,-6.9368,-6.9485,-6.9579,-6.9702,-6.9778,-6.9905,-6.9944,-7.0018,-7.0021,-7.0057,-7.0212,-7.0283,-7.0397,-7.0442,-7.0445,-7.0626,-7.0601,-7.0565,-7.0489,-7.0642,-7.0709,-7.0736,-7.0387,-7.0385,-7.0384,-7.0382,0,0,-6.9588,-6.9722,-6.9756,-6.9811,-6.9917,-7.0008,-7.0133,-7.0248,-7.0311,-7.0396,-7.0501,-7.0655,-7.0622,-7.0686,-7.0697,-7.0781,-7.094,-7.0734,-7.0736,-7.0769,-7.1144,-7.1171,-7.1202,-7.0928,-7.0933,-7.0937,-7.1136,0,-6.978,-7.0004,-7.0028,-7.0228,-7.0336,-7.0322,-7.0432,-7.0508,-7.0545,-7.0641,-7.068,-7.0789,-7.0737,-7.0776,-7.0859,-7.0903,-7.1015,-7.0889,-7.1025,-7.1029,-7.1003,-7.1237,-7.1265,-7.145,-7.1162,-7.1167,-7.117,0,-7.0033,-7.0129,-7.034,-7.0432,-7.0478,-7.0576,-7.0683,-7.0776,-7.0861,-7.0881,-7.0954,-7.0953,-7.1081,-7.1002,-7.1178,-7.1091,-7.1148,-7.1178,-7.1186,-7.1199,-7.1109,-7.1256,-7.1509,-7.1537,-7.1211,-7.1208,-7.1205,0,-7.0173,-7.0354,-7.0504,-7.0552,-7.0662,-7.0732,-7.078,-7.0861,-7.0928,-7.102,-7.1064,-7.1169,-7.1227,-7.1308,-7.1335,-7.1274,-7.151,-7.1432,-7.1529,-7.1529,-7.1579,-7.1576,-7.1845,-7.1616,-7.1616,-7.1615,-7.1615,0,-7.0384,-7.0514,-7.0569,-7.0661,-7.0806,-7.0831,-7.0973,-7.1017,-7.1089,-7.1189,-7.1182,-7.1275,-7.1306,-7.1404,-7.1425,-7.1568,-7.1593,-7.1613,-7.1617,-7.1614,-7.1611,-7.1651,-7.1638,-7.1623,-7.1621,-7.162,-7.1618,0,-7.0564,-7.0606,-7.0769,-7.0861,-7.0887,-7.0989,-7.1067,-7.1155,-7.119,-7.1317,-7.1347,-7.1403,-7.1518,-7.1553,-7.1691,-7.1705,-7.1872,-7.1865,-7.1844,-7.1844,-7.194,-7.193,-7.2244,-7.2286,-7.2029,-7.2032,-7.2034,0,-7.0696,-7.0796,-7.0899,-7.0967,-7.1019,-7.1127,-7.1196,-7.1224,-7.1296,-7.1401,-7.1477,-7.1591,-7.1684,-7.1868,-7.1919,-7.2024,-7.2019,-7.2122,-7.2035,-7.2028,-7.2021,-7.2014,-7.2024,-7.2138,-7.2141,-7.2143,-7.2145,0,-7.0926,-7.0942,-7.1044,-7.1153,-7.1236,-7.1323,-7.1406,-7.1461,-7.15,-7.1581,-7.17,-7.1773,-7.1914,-7.2027,-7.2135,-7.2182,-7.217,-7.2172,-7.22,-7.2197,-7.2181,-7.2191,-7.1889,-7.2164,-7.2162,-7.2161,-7.216,-7.2159,-7.1087,-7.1175,-7.1262,-7.1374,-7.1441,-7.1519,-7.1607,-7.1654,-7.1754,-7.1874,-7.1883,-7.2011,-7.2093,-7.2237,-7.229,-7.2389,-7.2359,-7.24,-7.241,-7.242,-7.2428,-7.2166,-7.2409,-7.2408,-7.2408,-7.2407,-7.2407,0,-7.1316,-7.1371,-7.1475,-7.1593,-7.1682,-7.1665,-7.1756,-7.1831,-7.1944,-7.2023,-7.2115,-7.2251,-7.2361,-7.2422,-7.2531,-7.2599,-7.2596,-7.2626,-7.2621,-7.2633,-7.2448,-7.2413,-7.2627,-7.2627,-7.2627,-7.2627,-7.2627,-7.2627,-7.1446,-7.1595,-7.1621,-7.1802,-7.1856,-7.1983,-7.2037,-7.2109,-7.2172,-7.2325,-7.2417,-7.2456,-7.2528,-7.2642,-7.2741,-7.2756,-7.2796,-7.283,-7.2842,-7.2668,-7.2646,-7.2624,-7.2591,-7.2839,-7.2839,-7.3018,-7.302,-7.3021]}]]